Track OSCAR 14 (UOSAT 3) now! 10-day predictions OSCAR 14 (UOSAT 3) is classified as:
1 20437U 90005B 21058.56999939 .00000003 00000-0 18089-4 0 9998 2 20437 98.8452 35.2902 0010828 164.1538 310.6398 14.32367780624421